Hourly Data Report for October 16, 2018

TORONTO CITY
ONTARIO
Current Station Operator: ECCC - MSC

43°40'00.000" N
79°24'00.000" W
112.50 m
6158355
71508
XTO

Download Data

Hourly Data (October 2018)
Hourly Data Report for October 16, 2018
TIME
LST
Temp Definition
°C
Dew Point Definition
°C
Rel Hum Definition
%
Precip. Amount Definition
mm

Wind Dir Definition
10's deg

Wind Spd Definition
km/h
Visibility Definition
km
Stn Press Definition
kPa
Hmdx Definition


Wind Chill Definition


Weather Definition


00:00 4.9 -3.0 56 0.0 LegendMM LegendMM   100.54     LegendNANA
01:00 4.5 -2.7 59 0.0 LegendMM LegendMM   100.57     LegendNANA
02:00 4.5 -2.4 61 0.0 LegendMM LegendMM   100.60     LegendNANA
03:00 4.0 -2.0 65 0.0 LegendMM LegendMM   100.58     LegendNANA
04:00 3.7 -1.7 68 0.0 LegendMM LegendMM   100.59     LegendNANA
05:00 3.9 -1.7 67 0.0 LegendMM LegendMM   100.61     LegendNANA
06:00 3.4 -1.6 69 0.0 LegendMM LegendMM   100.64     LegendNANA
07:00 3.6 -1.8 68 0.0 LegendMM LegendMM   100.66     LegendNANA
08:00 4.2 -1.6 66 0.0 LegendMM LegendMM   100.71     LegendNANA
09:00 5.2 -1.9 60 0.0 LegendMM LegendMM   100.71     LegendNANA
10:00 6.7 -2.9 50 0.0 LegendMM LegendMM   100.62     LegendNANA
11:00 8.1 -1.5 51 0.0 LegendMM LegendMM   100.54     LegendNANA
12:00 9.0 -3.7 40 0.0 LegendMM LegendMM   100.42     LegendNANA
13:00 10.4 -2.8 39 0.0 LegendMM LegendMM   100.26     LegendNANA
14:00 10.9 -2.6 39 0.0 LegendMM LegendMM   100.14     LegendNANA
15:00 11.8 -2.5 37 0.0 LegendMM LegendMM   100.06     LegendNANA
16:00 12.1 -3.0 35 0.0 LegendMM LegendMM   99.99     LegendNANA
17:00 11.6 -0.9 42 0.0 LegendMM LegendMM   99.95     LegendNANA
18:00 10.7 1.5 53 0.0 LegendMM LegendMM   99.92     LegendNANA
19:00 10.3 0.8 52 0.0 LegendMM LegendMM   99.91     LegendNANA
20:00 10.6 -0.7 45 0.0 LegendMM LegendMM   99.88     LegendNANA
21:00 10.6 -1.2 44 0.0 LegendMM LegendMM   99.88     LegendNANA
22:00 10.5 -1.5 43 0.0 LegendMM LegendMM   99.83     LegendNANA
23:00 10.4 -1.7 43 0.0 LegendMM LegendMM   99.78     LegendNANA

Notes on Data Quality.

Legend

  • E = Estimated
  • M = Missing
  • NA = Not Available*
  • [empty] = Indicates an unobserved value
Date modified: